This demonstration page uses our WeatherBlox Daily Observations layout. Learn more.

Left ArrowRight Arrow

Hourly Observations for October 7, 2016

Temp ( °F °C ) Dew Point ( °F °C ) Humidity (%) Winds ( mph kmh ) Pressure ( in mb ) Visibility ( mi km ) Precip ( " mm )
12:54 am 00:54 Clear 42 5.6 38 3.3 85 85 NNW 15 24 30.18 1022 10 16.0934 0 0
1:54 am 01:54 Clear 41 5 37 2.8 86 86 NNW 15 24 30.21 1023 10 16.0934 0 0
2:54 am 02:54 Clear 40 4.4 36 2.2 86 86 NW 7 11 30.24 1024 10 16.0934 0 0
3:54 am 03:54 Clear 39 3.9 36 2.2 89 89 NW 7 11 30.27 1025 10 16.0934 0 0
4:54 am 04:54 Clear 38 3.3 35 1.7 89 89 WNW 6 9 30.29 1026 10 16.0934 0 0
5:54 am 05:54 Clear 38 3.3 34 1.1 86 86 Calm 30.32 1027 10 16.0934 0 0
6:54 am 06:54 Clear 37 2.8 34 1.1 89 89 WNW 3 6 30.33 1027 10 16.0934 0 0
7:54 am 07:54 Sunny 37 2.8 34 1.1 89 89 W 3 6 30.35 1028 10 16.0934 0 0
8:54 am 08:54 Sunny 41 5 35 1.7 79 79 W 3 6 30.36 1028 10 16.0934 0 0
9:54 am 09:54 Sunny 47 8.3 38 3.3 71 71 W 7 11 30.36 1028 10 16.0934 0 0
10:54 am 10:54 Sunny 54 12.2 38 3.3 55 55 WNW 10 17 30.36 1028 10 16.0934 0 0
11:54 am 11:54 Sunny 59 15 36 2.2 42 42 NW 13 20 30.35 1028 10 16.0934 0 0
12:54 pm 12:54 Sunny 62 16.7 36 2.2 38 38 NW 10 17 30.35 1028 10 16.0934 0 0
1:54 pm 13:54 Sunny 64 17.8 38 3.3 38 38 NW 13 20 30.33 1027 10 16.0934 0 0
2:54 pm 14:54 Sunny 65 18.3 39 3.9 39 39 NW 10 17 30.3 1026 10 16.0934 0 0
3:54 pm 15:54 Sunny 66 18.9 37 2.8 34 34 WNW 12 19 30.29 1026 10 16.0934 0 0
4:54 pm 16:54 Sunny 66 18.9 38 3.3 36 36 VRB 5 7 30.27 1025 10 16.0934 0 0
5:54 pm 17:54 Sunny 65 18.3 38 3.3 37 37 WSW 6 9 30.27 1025 10 16.0934 0 0
6:54 pm 18:54 Sunny 62 16.7 38 3.3 41 41 Calm 30.27 1025 10 16.0934 0 0
7:54 pm 19:54 Clear 55 12.8 43 6.1 64 64 S 3 6 30.28 1026 10 16.0934 0 0
8:54 pm 20:54 Clear 51 10.6 44 6.7 77 77 S 3 6 30.29 1026 10 16.0934 0 0
9:54 pm 21:54 Clear 51 10.6 43 6.1 74 74 SSE 8 13 30.29 1026 10 16.0934 0 0
10:54 pm 22:54 Clear 51 10.6 41 5 69 69 SSE 3 6 30.28 1026 10 16.0934 0 0
11:54 pm 23:54 Clear 48 8.9 40 4.4 74 74 SE 3 6 30.28 1025 10 16.0934 0 0

Powered by AerisWeather